QPF
0.00 0.00 0.00 0.00 0.00 0.00 0.00 0.00 0.00 0.00 0.00 0.00 0.00 0.00 0.00 0.00 0.01 0.01 0.00 0.01 0.01 0.01 0.02 0.02 0.01 0.01 0.01 0.01 0.01 0.00 0.00 0.01 0.01 0.03 0.05 0.07 0.07 0.06 0.05 0.04 0.04 0.03 0.03 0.03
0.00 0.00 0.00 0.00 0.00 0.00 0.00 0.00 0.00 0.00 0.00 0.00 0.00 0.00 0.00 0.00 0.01 0.02 0.04 0.05 0.05 0.05 0.04 0.04 0.03 0.02 0.03 0.02 0.02 0.02 0.04 0.08 0.08 0.10 0.14 0.16 0.17 0.14 0.10 0.08 0.07 0.06 0.06 0.06
0.00 0.00 0.00 0.00 0.00 0.00 0.00 0.00 0.00 0.00 0.00 0.00 0.00 0.00 0.00 0.01 0.03 0.06 0.09 0.13 0.16 0.16 0.13 0.10 0.07 0.06 0.05 0.04 0.07 0.10 0.16 0.21 0.22 0.27 0.31 0.31 0.29 0.24 0.18 0.16 0.16 0.14 0.10 0.05
0.00 0.00 0.00 0.00 0.00 0.00 0.00 0.00 0.00 0.00 0.00 0.00 0.00 0.00 0.00 0.01 0.02 0.04 0.06 0.10 0.18 0.21 0.19 0.19 0.17 0.18 0.18 0.19 0.25 0.35 0.43 0.48 0.52 0.52 0.49 0.44 0.38 0.33 0.31 0.26 0.20 0.12 0.06 0.02
0.00 0.00 0.00 0.00 0.00 0.00 0.00 0.00 0.00 0.00 0.00 0.00 0.00 0.00 0.00 0.00 0.00 0.02 0.04 0.08 0.13 0.17 0.21 0.26 0.30 0.36 0.38 0.40 0.48 0.58 0.67 0.71 0.72 0.69 0.59 0.47 0.39 0.32 0.25 0.19 0.11 0.05 0.02 0.01
0.00 0.00 0.00 0.00 0.00 0.00 0.00 0.00 0.00 0.00 0.00 0.00 0.00 0.00 0.00 0.00 0.00 0.01 0.03 0.04 0.07 0.12 0.17 0.23 0.31 0.39 0.45 0.50 0.54 0.56 0.59 0.63 0.65 0.63 0.55 0.43 0.32 0.23 0.14 0.08 0.04 0.02 0.01 0.00
0.00 0.00 0.00 0.00 0.00 0.00 0.00 0.00 0.00 0.00 0.00 0.00 0.00 0.00 0.00 0.00 0.00 0.00 0.01 0.02 0.04 0.07 0.11 0.17 0.23 0.31 0.39 0.44 0.48 0.49 0.47 0.45 0.39 0.33 0.28 0.23 0.17 0.11 0.07 0.04 0.02 0.01 0.00 0.00
0.00 0.00 0.00 0.00 0.00 0.00 0.00 0.00 0.00 0.00 0.00 0.00 0.00 0.00 0.00 0.00 0.00 0.00 0.00 0.00 0.02 0.04 0.06 0.11 0.19 0.26 0.33 0.37 0.42 0.43 0.42 0.38 0.31 0.24 0.19 0.17 0.13 0.09 0.06 0.03 0.01 0.00 0.00 0.00
0.00 0.00 0.00 0.00 0.00 0.00 0.00 0.00 0.00 0.00 0.00 0.00 0.00 0.00 0.00 0.00 0.00 0.00 0.00 0.00 0.00 0.01 0.02 0.05 0.09 0.14 0.18 0.22 0.26 0.31 0.36 0.38 0.35 0.31 0.25 0.18 0.12 0.08 0.04 0.02 0.00 0.00 0.00 0.00
0.00 0.00 0.00 0.00 0.00 0.00 0.00 0.00 0.00 0.00 0.00 0.00 0.00 0.00 0.00 0.00 0.00 0.00 0.00 0.00 0.00 0.00 0.00 0.01 0.02 0.04 0.06 0.09 0.14 0.19 0.24 0.25 0.26 0.26 0.24 0.17 0.10 0.05 0.02 0.00 0.00 0.00 0.00 0.00
0.00 0.00 0.00 0.00 0.00 0.00 0.00 0.00 0.00 0.00 0.00 0.00 0.00 0.00 0.00 0.00 0.00 0.00 0.00 0.00 0.00 0.00 0.00 0.01 0.03 0.06 0.09 0.13 0.18 0.22 0.24 0.23 0.21 0.18 0.15 0.10 0.06 0.03 0.01 0.00 0.00 0.00 0.00 0.00
0.00 0.00 0.00 0.00 0.00 0.00 0.00 0.00 0.00 0.00 0.00 0.00 0.00 0.00 0.00 0.00 0.00 0.00 0.00 0.00 0.00 0.00 0.01 0.02 0.06 0.13 0.19 0.21 0.22 0.25 0.24 0.23 0.22 0.18 0.13 0.10 0.05 0.02 0.00 0.00 0.00 0.00 0.00 0.00
0.00 0.00 0.00 0.00 0.00 0.00 0.00 0.00 0.00 0.00 0.00 0.00 0.00 0.00 0.00 0.00 0.00 0.00 0.00 0.00 0.00 0.01 0.03 0.05 0.10 0.16 0.22 0.25 0.25 0.24 0.18 0.14 0.12 0.13 0.14 0.09 0.04 0.01 0.00 0.00 0.00 0.00 0.00 0.00
0.00 0.00 0.00 0.00 0.00 0.00 0.00 0.00 0.00 0.00 0.00 0.00 0.00 0.00 0.00 0.00 0.00 0.00 0.00 0.00 0.01 0.02 0.03 0.05 0.09 0.15 0.20 0.25 0.28 0.22 0.13 0.07 0.06 0.05 0.05 0.04 0.01 0.00 0.00 0.00 0.00 0.00 0.00 0.00
0.00 0.00 0.00 0.00 0.00 0.00 0.00 0.00 0.00 0.00 0.00 0.00 0.00 0.00 0.00 0.00 0.00 0.00 0.00 0.00 0.02 0.04 0.05 0.06 0.10 0.15 0.17 0.20 0.20 0.13 0.07 0.04 0.03 0.03 0.03 0.02 0.02 0.00 0.00 0.00 0.00 0.00 0.00 0.00
0.00 0.00 0.00 0.00 0.00 0.00 0.00 0.00 0.00 0.00 0.00 0.00 0.00 0.00 0.00 0.00 0.00 0.00 0.00 0.00 0.02 0.04 0.05 0.06 0.10 0.15 0.16 0.14 0.11 0.05 0.03 0.02 0.01 0.02 0.02 0.04 0.04 0.03 0.02 0.01 0.00 0.00 0.00 0.00
0.00 0.00 0.00 0.00 0.00 0.00 0.00 0.00 0.00 0.00 0.00 0.00 0.00 0.00 0.00 0.00 0.00 0.00 0.00 0.00 0.00 0.01 0.01 0.02 0.05 0.06 0.04 0.04 0.03 0.02 0.01 0.02 0.02 0.02 0.03 0.05 0.05 0.04 0.03 0.01 0.01 0.01 0.01 0.01
0.00 0.00 0.00 0.00 0.00 0.00 0.00 0.00 0.00 0.00 0.00 0.00 0.00 0.00 0.00 0.00 0.00 0.00 0.00 0.00 0.00 0.00 0.00 0.00 0.00 0.00 0.00 0.00 0.00 0.00 0.01 0.01 0.01 0.01 0.02 0.03 0.03 0.02 0.02 0.03 0.04 0.04 0.03 0.01
0.00 0.00 0.00 0.00 0.00 0.00 0.00 0.00 0.00 0.00 0.00 0.00 0.00 0.00 0.00 0.00 0.00 0.00 0.00 0.00 0.00 0.00 0.00 0.00 0.00 0.00 0.00 0.00 0.00 0.00 0.00 0.01 0.01 0.01 0.01 0.01 0.01 0.02 0.02 0.02 0.02 0.02 0.01 0.00
0.00 0.00 0.00 0.00 0.00 0.00 0.00 0.00 0.00 0.00 0.00 0.00 0.00 0.00 0.00 0.00 0.00 0.00 0.00 0.00 0.00 0.00 0.00 0.00 0.00 0.00 0.00 0.00 0.00 0.00 0.00 0.01 0.01 0.02 0.01 0.01 0.01 0.01 0.01 0.01 0.01 0.01 0.00 0.00
0.00 0.00 0.00 0.00 0.00 0.00 0.00 0.00 0.00 0.00 0.00 0.00 0.00 0.00 0.00 0.00 0.00 0.00 0.00 0.00 0.00 0.00 0.00 0.00 0.00 0.00 0.00 0.00 0.00 0.00 0.00 0.00 0.01 0.02 0.01 0.01 0.01 0.01 0.00 0.00 0.00 0.00 0.00 0.00
0.00 0.00 0.00 0.00 0.00 0.00 0.00 0.00 0.00 0.00 0.00 0.00 0.00 0.00 0.00 0.00 0.00 0.00 0.00 0.00 0.00 0.00 0.00 0.00 0.00 0.00 0.00 0.00 0.00 0.00 0.00 0.00 0.00 0.01 0.01 0.00 0.00 0.00 0.00 0.00 0.00 0.00 0.00 0.00
0.00 0.00 0.00 0.00 0.00 0.00 0.00 0.00 0.00 0.00 0.00 0.00 0.00 0.00 0.00 0.00 0.00 0.00 0.00 0.00 0.00 0.00 0.00 0.00 0.00 0.00 0.00 0.00 0.00 0.00 0.00 0.00 0.00 0.00 0.00 0.00 0.00 0.00 0.00 0.00 0.00 0.00 0.00 0.00
0.00 0.00 0.00 0.00 0.00 0.00 0.00 0.00 0.00 0.00 0.00 0.00 0.00 0.00 0.00 0.00 0.00 0.00 0.00 0.00 0.00 0.00 0.00 0.00 0.00 0.00 0.00 0.00 0.00 0.00 0.00 0.00 0.00 0.00 0.00 0.00 0.00 0.00 0.00 0.00 0.00 0.00 0.01 0.01
0.00 0.00 0.00 0.00 0.00 0.00 0.00 0.00 0.00 0.00 0.00 0.00 0.00 0.00 0.00 0.00 0.00 0.00 0.00 0.00 0.00 0.00 0.00 0.00 0.00 0.00 0.00 0.00 0.00 0.00 0.00 0.00 0.00 0.00 0.00 0.00 0.00 0.00 0.00 0.00 0.00 0.01 0.01 0.01
0.00 0.00 0.00 0.00 0.00 0.00 0.00 0.00 0.00 0.00 0.00 0.00 0.00 0.00 0.00 0.00 0.00 0.00 0.00 0.00 0.00 0.00 0.00 0.00 0.00 0.00 0.00 0.00 0.00 0.00 0.00 0.00 0.00 0.00 0.00 0.00 0.00 0.00 0.00 0.00 0.00 0.00 0.00 0.00
MSLP
1013.53 1014.18 1014.67 1014.97 1015.11 1015.11 1015.01 1014.83 1014.61 1014.34 1014.05 1013.73 1013.38 1013.02 1012.65 1012.30 1011.98 1011.71 1011.49 1011.31 1011.16 1011.03 1010.91 1010.80 1010.70 1010.62 1010.59 1010.61 1010.70 1010.87 1011.11 1011.39 1011.69 1011.99 1012.25 1012.46 1012.61 1012.71 1012.77 1012.81 1012.84 1012.89 1012.96 1013.06
1013.88 1014.41 1014.77 1014.98 1015.07 1015.08 1015.05 1014.98 1014.91 1014.81 1014.68 1014.49 1014.23 1013.92 1013.57 1013.20 1012.84 1012.52 1012.25 1012.03 1011.85 1011.70 1011.55 1011.39 1011.22 1011.06 1010.92 1010.83 1010.82 1010.90 1011.07 1011.32 1011.62 1011.94 1012.23 1012.48 1012.65 1012.76 1012.80 1012.80 1012.79 1012.80 1012.83 1012.90
1014.04 1014.42 1014.66 1014.79 1014.86 1014.91 1014.99 1015.08 1015.19 1015.29 1015.33 1015.27 1015.11 1014.84 1014.48 1014.07 1013.65 1013.27 1012.95 1012.68 1012.48 1012.30 1012.13 1011.94 1011.72 1011.49 1011.26 1011.08 1010.97 1010.96 1011.07 1011.29 1011.58 1011.91 1012.24 1012.52 1012.74 1012.86 1012.91 1012.90 1012.87 1012.84 1012.84 1012.88
1014.06 1014.28 1014.40 1014.47 1014.55 1014.69 1014.91 1015.20 1015.52 1015.81 1016.02 1016.10 1016.01 1015.75 1015.36 1014.88 1014.38 1013.91 1013.51 1013.19 1012.95 1012.76 1012.57 1012.37 1012.13 1011.85 1011.56 1011.30 1011.10 1011.01 1011.06 1011.23 1011.51 1011.85 1012.21 1012.53 1012.79 1012.95 1013.03 1013.03 1012.99 1012.95 1012.93 1012.95
1014.02 1014.08 1014.11 1014.15 1014.28 1014.53 1014.91 1015.41 1015.94 1016.43 1016.80 1016.98 1016.92 1016.65 1016.19 1015.60 1014.98 1014.40 1013.91 1013.52 1013.24 1013.03 1012.85 1012.65 1012.40 1012.10 1011.77 1011.45 1011.19 1011.03 1011.00 1011.12 1011.36 1011.70 1012.07 1012.43 1012.74 1012.95 1013.07 1013.12 1013.11 1013.07 1013.05 1013.05
1014.01 1013.95 1013.91 1013.95 1014.15 1014.53 1015.09 1015.77 1016.50 1017.16 1017.66 1017.90 1017.85 1017.52 1016.95 1016.24 1015.47 1014.75 1014.15 1013.68 1013.35 1013.13 1012.95 1012.77 1012.54 1012.25 1011.90 1011.55 1011.22 1010.99 1010.89 1010.95 1011.14 1011.45 1011.83 1012.21 1012.56 1012.83 1013.01 1013.11 1013.14 1013.14 1013.13 1013.13
1014.11 1013.97 1013.89 1013.96 1014.24 1014.75 1015.47 1016.33 1017.21 1017.99 1018.56 1018.82 1018.73 1018.31 1017.62 1016.76 1015.84 1014.98 1014.25 1013.70 1013.33 1013.09 1012.93 1012.78 1012.58 1012.31 1011.97 1011.60 1011.23 1010.94 1010.76 1010.74 1010.87 1011.13 1011.49 1011.87 1012.25 1012.57 1012.82 1012.98 1013.08 1013.13 1013.16 1013.17
1014.33 1014.16 1014.10 1014.22 1014.58 1015.21 1016.05 1017.03 1018.01 1018.85 1019.43 1019.67 1019.51 1018.98 1018.16 1017.14 1016.08 1015.08 1014.25 1013.63 1013.21 1012.97 1012.83 1012.72 1012.57 1012.34 1012.02 1011.64 1011.25 1010.90 1010.66 1010.55 1010.60 1010.80 1011.11 1011.48 1011.87 1012.23 1012.53 1012.77 1012.93 1013.05 1013.12 1013.16
1014.66 1014.50 1014.48 1014.67 1015.12 1015.82 1016.74 1017.77 1018.78 1019.62 1020.16 1020.33 1020.08 1019.44 1018.49 1017.35 1016.17 1015.07 1014.16 1013.49 1013.05 1012.81 1012.70 1012.64 1012.54 1012.36 1012.07 1011.71 1011.30 1010.92 1010.61 1010.43 1010.40 1010.52 1010.77 1011.11 1011.49 1011.87 1012.21 1012.51 1012.74 1012.92 1013.04 1013.12
1015.01 1014.92 1014.98 1015.23 1015.74 1016.49 1017.42 1018.44 1019.40 1020.17 1020.63 1020.69 1020.34 1019.60 1018.56 1017.34 1016.09 1014.95 1014.00 1013.31 1012.87 1012.65 1012.58 1012.56 1012.52 1012.39 1012.16 1011.82 1011.43 1011.02 1010.67 1010.43 1010.32 1010.37 1010.55 1010.83 1011.19 1011.57 1011.93 1012.27 1012.56 1012.79 1012.96 1013.08
1015.31 1015.32 1015.46 1015.79 1016.32 1017.06 1017.95 1018.87 1019.73 1020.37 1020.70 1020.66 1020.21 1019.40 1018.32 1017.08 1015.83 1014.69 1013.76 1013.09 1012.69 1012.50 1012.47 1012.50 1012.51 1012.45 1012.26 1011.97 1011.60 1011.21 1010.84 1010.56 1010.39 1010.37 1010.49 1010.72 1011.03 1011.39 1011.76 1012.11 1012.43 1012.70 1012.92 1013.08
1015.50 1015.62 1015.85 1016.22 1016.76 1017.44 1018.21 1019.00 1019.69 1020.17 1020.36 1020.19 1019.68 1018.84 1017.77 1016.58 1015.39 1014.33 1013.47 1012.86 1012.50 1012.36 1012.37 1012.44 1012.50 1012.49 1012.36 1012.13 1011.80 1011.44 1011.08 1010.79 1010.60 1010.54 1010.60 1010.78 1011.04 1011.37 1011.72 1012.07 1012.40 1012.69 1012.93 1013.12
1015.57 1015.80 1016.09 1016.48 1016.98 1017.56 1018.18 1018.78 1019.27 1019.57 1019.60 1019.34 1018.78 1017.96 1016.95 1015.86 1014.80 1013.86 1013.11 1012.60 1012.31 1012.22 1012.26 1012.36 1012.46 1012.48 1012.41 1012.24 1011.98 1011.67 1011.35 1011.08 1010.90 1010.82 1010.84 1010.98 1011.20 1011.48 1011.80 1012.13 1012.45 1012.74 1013.00 1013.21
1015.56 1015.87 1016.20 1016.58 1016.99 1017.43 1017.87 1018.26 1018.53 1018.63 1018.52 1018.17 1017.60 1016.84 1015.95 1015.01 1014.11 1013.33 1012.73 1012.32 1012.10 1012.06 1012.12 1012.24 1012.35 1012.41 1012.38 1012.27 1012.08 1011.84 1011.59 1011.37 1011.22 1011.14 1011.16 1011.27 1011.46 1011.70 1011.98 1012.28 1012.57 1012.86 1013.11 1013.34
1015.57 1015.91 1016.24 1016.55 1016.85 1017.12 1017.35 1017.51 1017.56 1017.48 1017.24 1016.83 1016.27 1015.60 1014.85 1014.09 1013.38 1012.78 1012.33 1012.03 1011.89 1011.87 1011.95 1012.07 1012.18 1012.25 1012.26 1012.20 1012.08 1011.92 1011.75 1011.60 1011.50 1011.46 1011.49 1011.59 1011.75 1011.96 1012.20 1012.47 1012.74 1013.01 1013.26 1013.49
1015.67 1016.00 1016.27 1016.48 1016.62 1016.70 1016.71 1016.65 1016.49 1016.24 1015.88 1015.44 1014.92 1014.34 1013.75 1013.18 1012.66 1012.24 1011.93 1011.74 1011.66 1011.67 1011.75 1011.85 1011.95 1012.02 1012.05 1012.03 1011.97 1011.89 1011.80 1011.73 1011.69 1011.70 1011.76 1011.87 1012.02 1012.22 1012.44 1012.67 1012.92 1013.17 1013.42 1013.66
1015.91 1016.17 1016.34 1016.41 1016.38 1016.26 1016.05 1015.77 1015.42 1015.02 1014.58 1014.11 1013.63 1013.16 1012.71 1012.32 1011.98 1011.72 1011.55 1011.45 1011.42 1011.45 1011.51 1011.59 1011.67 1011.73 1011.77 1011.79 1011.78 1011.77 1011.76 1011.77 1011.80 1011.86 1011.96 1012.09 1012.25 1012.44 1012.65 1012.87 1013.11 1013.35 1013.60 1013.84
1016.31 1016.45 1016.47 1016.37 1016.15 1015.83 1015.41 1014.93 1014.42 1013.89 1013.38 1012.89 1012.46 1012.08 1011.77 1011.52 1011.34 1011.22 1011.16 1011.14 1011.16 1011.20 1011.26 1011.32 1011.38 1011.43 1011.48 1011.52 1011.57 1011.61 1011.67 1011.74 1011.83 1011.94 1012.07 1012.23 1012.41 1012.61 1012.82 1013.05 1013.29 1013.54 1013.79 1014.04
1016.77 1016.75 1016.61 1016.32 1015.91 1015.39 1014.79 1014.14 1013.49 1012.86 1012.30 1011.81 1011.41 1011.11 1010.90 1010.77 1010.71 1010.70 1010.73 1010.78 1010.85 1010.91 1010.97 1011.03 1011.09 1011.15 1011.21 1011.28 1011.36 1011.45 1011.56 1011.68 1011.82 1011.97 1012.14 1012.32 1012.53 1012.75 1012.98 1013.23 1013.48 1013.74 1014.01 1014.27
1017.17 1016.99 1016.66 1016.20 1015.60 1014.91 1014.15 1013.37 1012.61 1011.91 1011.30 1010.80 1010.43 1010.19 1010.05 1010.01 1010.04 1010.12 1010.23 1010.34 1010.45 1010.55 1010.65 1010.73 1010.81 1010.90 1010.99 1011.10 1011.21 1011.34 1011.48 1011.64 1011.80 1011.98 1012.18 1012.39 1012.61 1012.86 1013.12 1013.39 1013.67 1013.96 1014.24 1014.52
1017.38 1017.03 1016.54 1015.91 1015.15 1014.32 1013.44 1012.56 1011.72 1010.97 1010.34 1009.84 1009.49 1009.27 1009.19 1009.20 1009.30 1009.44 1009.61 1009.78 1009.95 1010.11 1010.26 1010.40 1010.53 1010.67 1010.81 1010.96 1011.12 1011.28 1011.45 1011.63 1011.81 1012.01 1012.21 1012.44 1012.69 1012.95 1013.24 1013.55 1013.86 1014.18 1014.49 1014.78
1017.30 1016.81 1016.17 1015.40 1014.53 1013.59 1012.63 1011.69 1010.81 1010.03 1009.38 1008.88 1008.54 1008.34 1008.27 1008.32 1008.45 1008.63 1008.85 1009.08 1009.32 1009.55 1009.77 1009.99 1010.21 1010.43 1010.64 1010.85 1011.06 1011.26 1011.46 1011.65 1011.84 1012.04 1012.26 1012.49 1012.75 1013.04 1013.36 1013.69 1014.03 1014.38 1014.71 1015.02
1016.90 1016.29 1015.55 1014.69 1013.74 1012.74 1011.74 1010.76 1009.87 1009.08 1008.43 1007.93 1007.59 1007.39 1007.32 1007.37 1007.51 1007.71 1007.97 1008.25 1008.55 1008.86 1009.18 1009.50 1009.82 1010.13 1010.43 1010.72 1010.99 1011.24 1011.46 1011.67 1011.87 1012.08 1012.29 1012.53 1012.80 1013.10 1013.44 1013.79 1014.16 1014.53 1014.88 1015.20
1016.23 1015.56 1014.75 1013.84 1012.85 1011.83 1010.82 1009.85 1008.96 1008.18 1007.54 1007.03 1006.67 1006.45 1006.37 1006.39 1006.52 1006.73 1006.99 1007.31 1007.67 1008.06 1008.46 1008.89 1009.31 1009.73 1010.13 1010.50 1010.84 1011.14 1011.41 1011.65 1011.87 1012.08 1012.30 1012.54 1012.82 1013.13 1013.47 1013.84 1014.22 1014.60 1014.96 1015.29
1015.43 1014.72 1013.89 1012.97 1011.98 1010.97 1009.98 1009.03 1008.16 1007.40 1006.76 1006.24 1005.86 1005.61 1005.48 1005.47 1005.55 1005.74 1005.99 1006.32 1006.71 1007.16 1007.64 1008.15 1008.67 1009.18 1009.68 1010.14 1010.56 1010.93 1011.25 1011.53 1011.78 1012.01 1012.25 1012.50 1012.79 1013.10 1013.45 1013.82 1014.21 1014.59 1014.95 1015.28
1014.65 1013.95 1013.13 1012.22 1011.26 1010.28 1009.32 1008.41 1007.57 1006.82 1006.17 1005.64 1005.22 1004.92 1004.74 1004.66 1004.69 1004.81 1005.04 1005.35 1005.74 1006.20 1006.72 1007.29 1007.88 1008.48 1009.06 1009.61 1010.11 1010.56 1010.94 1011.28 1011.58 1011.85 1012.12 1012.40 1012.69 1013.02 1013.37 1013.74 1014.11 1014.49 1014.84 1015.16
Thickness
5745 5731 5722 5727 5731 5734 5734 5731 5728 5740 5760 5759 5754 5753 5763 5777 5779 5777 5776 5775 5775 5778 5781 5782 5783 5784 5784 5782 5780 5777 5774 5772 5769 5766 5762 5757 5755 5754 5753 5753 5752 5751 5751 5750
5723 5722 5736 5742 5740 5735 5730 5725 5726 5738 5753 5751 5745 5743 5751 5759 5760 5761 5760 5759 5761 5764 5768 5771 5772 5773 5774 5773 5771 5769 5766 5763 5760 5757 5755 5752 5748 5746 5746 5744 5743 5742 5743 5742
5719 5728 5743 5740 5736 5730 5726 5722 5723 5726 5737 5739 5737 5729 5732 5740 5747 5749 5749 5750 5751 5754 5756 5757 5758 5760 5762 5762 5761 5759 5757 5753 5750 5747 5743 5740 5738 5735 5733 5731 5731 5732 5733 5732
5721 5732 5734 5730 5728 5727 5715 5728 5727 5725 5715 5705 5715 5698 5717 5717 5726 5732 5734 5736 5738 5741 5744 5746 5747 5748 5750 5753 5754 5751 5747 5743 5739 5735 5733 5731 5727 5723 5722 5720 5719 5721 5722 5722
5712 5724 5724 5720 5725 5727 5721 5726 5720 5715 5707 5696 5698 5691 5693 5707 5709 5716 5720 5723 5726 5728 5731 5733 5736 5738 5739 5742 5743 5742 5737 5733 5730 5724 5722 5721 5717 5714 5712 5711 5710 5712 5713 5714
5715 5726 5727 5725 5728 5725 5723 5710 5699 5687 5682 5673 5688 5680 5679 5692 5700 5705 5710 5712 5714 5716 5718 5720 5723 5725 5726 5728 5729 5729 5726 5722 5721 5716 5712 5710 5708 5705 5702 5701 5701 5703 5704 5706
5702 5714 5725 5729 5719 5715 5706 5684 5662 5662 5655 5661 5679 5674 5677 5698 5701 5700 5699 5702 5704 5704 5705 5706 5708 5709 5711 5712 5713 5712 5713 5711 5709 5708 5705 5701 5698 5696 5693 5693 5693 5694 5696 5697
5686 5686 5712 5721 5715 5704 5697 5682 5657 5647 5644 5654 5669 5667 5681 5698 5698 5695 5694 5694 5694 5693 5693 5692 5693 5694 5695 5696 5697 5698 5698 5699 5699 5698 5695 5692 5688 5685 5684 5684 5685 5686 5688 5689
5684 5686 5713 5715 5715 5707 5689 5677 5674 5652 5649 5643 5652 5664 5681 5692 5689 5689 5687 5686 5684 5683 5681 5680 5678 5677 5677 5678 5680 5682 5684 5685 5686 5686 5685 5680 5677 5675 5675 5675 5676 5678 5679 5680
5696 5687 5703 5709 5708 5693 5688 5674 5655 5646 5638 5632 5643 5651 5660 5678 5680 5683 5680 5677 5676 5673 5670 5668 5665 5663 5661 5660 5662 5664 5667 5671 5674 5675 5674 5672 5668 5667 5667 5667 5668 5670 5670 5670
5700 5684 5689 5692 5691 5686 5676 5664 5651 5638 5636 5625 5624 5644 5670 5674 5677 5674 5673 5671 5667 5663 5660 5655 5652 5649 5647 5646 5646 5648 5650 5654 5659 5663 5663 5661 5659 5659 5659 5659 5659 5660 5662 5661
5690 5675 5667 5676 5686 5686 5679 5667 5649 5642 5637 5623 5617 5638 5677 5671 5669 5665 5664 5663 5661 5656 5651 5645 5639 5635 5632 5630 5631 5634 5637 5641 5646 5651 5652 5651 5650 5651 5651 5651 5651 5652 5652 5652
5684 5669 5654 5658 5663 5673 5668 5658 5651 5637 5626 5611 5609 5637 5672 5665 5664 5662 5657 5655 5653 5649 5643 5636 5629 5623 5619 5617 5618 5621 5625 5630 5635 5639 5641 5640 5641 5642 5642 5643 5643 5643 5642 5641
5684 5666 5656 5651 5654 5661 5662 5655 5643 5634 5621 5614 5620 5638 5659 5660 5658 5656 5653 5649 5645 5640 5635 5628 5620 5614 5610 5607 5607 5610 5615 5620 5625 5628 5631 5631 5633 5634 5635 5636 5635 5633 5632 5631
5680 5663 5659 5658 5662 5659 5657 5657 5645 5633 5633 5627 5635 5637 5652 5657 5655 5653 5651 5646 5640 5635 5629 5623 5615 5608 5604 5602 5601 5602 5607 5612 5616 5619 5622 5624 5626 5627 5628 5628 5626 5624 5622 5620
5668 5661 5655 5653 5659 5652 5650 5656 5650 5639 5636 5631 5632 5638 5656 5653 5650 5647 5646 5642 5636 5631 5626 5621 5615 5609 5604 5601 5600 5601 5603 5607 5611 5614 5616 5618 5619 5620 5620 5620 5618 5615 5612 5610
5657 5650 5642 5636 5648 5647 5639 5653 5650 5642 5639 5635 5631 5645 5653 5650 5647 5645 5645 5641 5635 5629 5625 5620 5614 5610 5605 5602 5601 5601 5603 5605 5607 5609 5610 5611 5612 5612 5612 5611 5609 5606 5603 5600
5653 5642 5631 5628 5637 5627 5647 5662 5655 5646 5645 5643 5642 5646 5647 5646 5648 5646 5645 5641 5636 5631 5625 5620 5614 5610 5606 5603 5601 5600 5601 5602 5603 5604 5604 5605 5605 5604 5603 5601 5599 5596 5593 5590
5656 5644 5628 5619 5620 5631 5650 5663 5656 5644 5643 5652 5643 5646 5647 5645 5642 5644 5648 5644 5640 5634 5627 5620 5615 5610 5606 5603 5600 5598 5598 5599 5600 5600 5599 5598 5597 5595 5593 5591 5589 5587 5585 5582
5648 5641 5629 5617 5616 5618 5647 5668 5668 5651 5638 5656 5647 5645 5643 5634 5628 5638 5651 5647 5641 5635 5628 5621 5615 5610 5606 5602 5599 5597 5596 5596 5596 5596 5594 5592 5590 5588 5585 5583 5580 5578 5577 5574
5640 5632 5624 5616 5612 5628 5653 5662 5658 5633 5636 5655 5650 5645 5639 5631 5639 5644 5648 5645 5640 5634 5628 5622 5615 5609 5606 5602 5598 5596 5595 5594 5594 5592 5589 5586 5583 5581 5578 5575 5573 5572 5570 5567
5635 5625 5619 5612 5607 5621 5653 5652 5640 5640 5650 5651 5649 5646 5641 5640 5642 5639 5639 5638 5635 5630 5626 5621 5615 5610 5606 5602 5599 5597 5595 5594 5592 5589 5585 5581 5577 5576 5573 5571 5569 5567 5565 5562
5630 5629 5623 5621 5626 5642 5647 5647 5648 5645 5643 5646 5646 5647 5644 5640 5639 5637 5634 5632 5630 5628 5625 5621 5616 5611 5607 5604 5601 5599 5597 5594 5591 5587 5582 5578 5575 5573 5571 5570 5567 5564 5561 5560
5631 5632 5622 5622 5633 5640 5643 5643 5644 5644 5642 5645 5645 5645 5642 5638 5639 5635 5632 5629 5627 5626 5623 5619 5614 5611 5608 5605 5602 5600 5597 5593 5589 5585 5580 5576 5574 5571 5570 5568 5567 5564 5560 5557
5627 5628 5619 5619 5631 5634 5639 5641 5644 5644 5644 5641 5642 5642 5641 5639 5637 5634 5630 5628 5626 5625 5621 5617 5613 5611 5609 5605 5601 5598 5594 5591 5587 5583 5578 5575 5572 5570 5567 5565 5564 5563 5560 5558
5619 5617 5615 5620 5630 5628 5634 5642 5643 5639 5639 5640 5638 5639 5641 5639 5637 5634 5631 5629 5626 5623 5619 5615 5611 5609 5606 5603 5600 5596 5592 5589 5585 5580 5576 5573 5569 5566 5564 5561 5558 5556 5556 5553